STARLINK-11288 [DTC] (61002 NORAD) Tracking and Keplerian Element Data

This shows tracking and keplerian element data for the satellite.

Feedback or suggestion? Click here.




ElementValue
Catalog61002
NameSTARLINK-11288 [DTC]
Epoch Orbit697
Epoch Day286.44194757
Epoch Year2024
RAAN291.3554
Inclination53.1587
Eccentricity0.0001322
Argument of Perigee43.1836
Mean Anonmoly316.9288
Mean Motion15.74979701
Decay Rate7.924E-05
L11 61002U 24158N 24286.44194757 .00007924 00000+0 56433-4 0 9998
L22 61002 53.1587 291.3554 0001322 43.1836 316.9288 15.74979701 6971



Live tracking and technical data element details for STARLINK-11288 [DTC] (NORAD 61002). STARLINK-11288 [DTC] can be tracked NOW for your location showing map with azimuth and elevation plus other details from your city location.







IsCatalogInMostPopularTable: catalog: 61002, numindb: 9
Update: records affected: 1



GetName: 61002 STARLINK-11288 [DTC]

Hit Count: updated at: Wed, 04 Dec 2024 19:07:58 GMT